Wind_Speed
37 36 36 37 37 37 38 39 39 39 39 41 42 43 45 46 47 48 49 49 51 52 52 52 52 52 51 50 50 49 48 47 46 44 43 42 41 40
36 36 36 36 35 36 37 39 39 40 40 41 42 44 45 46 48 49 50 51 52 51 52 51 51 50 49 48 48 48 46 45 44 42 41 40 39 38
37 37 37 36 37 37 38 39 39 40 41 41 43 45 46 48 48 50 50 50 50 51 51 50 49 48 48 47 47 46 45 44 42 40 39 37 37 36
37 36 37 37 38 38 38 39 40 41 42 42 44 46 47 48 49 49 49 49 49 49 48 48 47 47 47 46 45 44 43 41 39 38 36 35 34 33
37 37 37 37 37 38 39 40 41 41 42 43 45 46 47 48 48 47 48 49 48 48 47 47 46 46 46 45 43 42 40 38 36 35 34 32 31 30
36 37 37 37 37 38 39 40 41 42 43 44 46 46 46 46 47 47 47 47 46 46 46 46 46 45 44 42 41 39 38 36 34 32 31 29 29 28
36 36 36 37 37 38 39 40 41 42 43 44 45 45 45 45 46 46 46 45 44 44 45 45 45 43 42 40 39 37 35 33 31 30 29 28 27 27
36 36 35 36 37 38 39 40 42 42 43 43 44 44 45 45 45 45 44 43 42 42 43 43 42 40 39 37 36 34 32 31 30 29 28 26 26 26
36 35 35 36 37 38 39 40 41 42 43 43 43 44 44 44 43 42 42 42 42 41 40 39 38 37 35 35 33 31 31 30 30 29 27 25 25 25
36 36 36 38 38 38 39 39 40 41 42 42 43 43 43 42 42 41 41 41 40 39 38 37 35 34 33 32 31 30 30 29 29 27 25 24 24 24
36 36 37 38 38 39 38 38 39 41 42 42 42 42 42 41 40 40 40 39 37 37 36 34 33 32 31 30 30 29 29 28 27 25 24 24 24 23
35 36 36 37 37 38 37 38 39 40 41 41 41 40 40 39 39 39 39 37 35 34 33 32 31 30 28 27 27 28 27 27 25 24 23 23 22 22
36 36 36 36 36 37 37 38 39 39 39 39 39 38 37 37 37 37 36 35 33 32 32 31 29 28 27 25 25 25 26 25 24 23 22 21 21 20
36 36 35 35 35 37 37 38 38 37 37 37 36 35 35 35 35 35 34 33 32 31 30 29 28 27 25 23 23 23 24 24 23 22 21 21 20 19
35 35 34 35 36 36 37 37 36 35 35 34 33 33 33 33 32 32 31 31 30 29 28 28 26 25 23 22 22 22 22 21 22 21 20 20 19 16
34 34 34 34 35 36 35 34 33 32 32 31 31 31 31 30 30 30 29 28 27 27 26 25 23 22 21 21 21 21 21 21 21 20 20 19 17 14
33 32 32 32 33 33 32 30 30 30 30 29 29 28 28 28 28 28 27 26 25 24 23 22 21 21 21 21 20 20 20 20 20 19 19 17 15 13
31 31 31 31 31 30 28 28 28 28 27 27 26 26 26 27 27 26 25 24 23 22 21 20 20 20 20 20 20 18 18 19 19 19 18 16 14 13
29 29 29 29 28 27 26 25 26 26 25 24 24 25 25 25 25 24 23 22 21 21 20 20 20 19 18 18 17 17 17 18 18 17 16 15 13 12
28 28 28 27 26 25 24 24 24 23 23 23 23 24 24 24 23 22 21 20 19 19 19 19 18 18 17 16 15 16 17 17 16 15 15 15 13 12
26 26 26 25 24 23 23 22 22 22 21 22 22 23 23 22 21 20 19 19 18 18 18 18 17 17 16 15 14 15 16 16 16 15 14 13 13 12
24 24 24 24 23 22 21 21 20 20 20 21 21 21 21 21 19 18 17 17 17 17 17 16 15 15 15 13 13 14 14 15 14 14 14 13 13 12
23 23 23 23 22 22 21 20 19 19 19 20 20 20 20 19 18 17 16 16 17 17 16 15 15 14 13 12 13 13 14 14 14 14 13 13 12 12
Wind_Direction
274 276 278 280 282 283 285 287 289 291 293 295 297 299 300 301 302 303 304 304 305 306 306 306 307 307 306 306 305 304 304 302 300 298 297 295 294 292
274 276 279 281 283 285 286 288 291 294 296 297 298 300 301 302 303 304 305 306 307 307 307 307 307 307 308 307 306 305 304 303 301 299 298 295 295 293
274 277 279 281 283 285 287 290 292 295 296 298 300 301 302 303 304 305 306 307 307 308 308 308 308 308 308 308 307 306 305 304 302 300 299 297 296 295
274 277 279 280 282 284 288 291 293 296 297 299 300 302 303 305 305 305 306 308 308 308 309 309 309 309 309 309 308 307 306 305 303 301 300 298 297 296
274 276 278 280 282 285 288 291 293 296 298 300 302 303 304 306 306 306 307 308 308 308 310 310 310 310 310 310 309 308 308 307 306 304 301 299 298 297
275 276 278 279 281 285 289 291 294 296 298 301 303 303 305 306 306 307 307 307 308 308 309 310 311 311 310 310 310 309 309 308 307 306 304 300 298 297
275 276 278 279 282 286 289 292 294 297 299 301 303 304 305 306 307 307 308 308 308 309 309 311 311 311 311 310 311 311 310 310 309 307 305 301 299 298
274 276 279 282 284 287 290 292 295 297 300 302 303 304 306 307 307 308 309 309 310 310 310 311 311 311 311 310 310 310 312 313 311 309 307 303 301 299
274 276 280 284 287 289 290 293 295 298 301 302 303 304 306 307 308 309 310 311 312 312 313 314 314 314 313 312 311 311 313 313 312 310 308 305 304 303
273 276 281 284 287 290 291 293 296 298 300 301 303 304 306 307 308 309 311 312 312 313 314 315 316 316 316 315 314 313 314 316 315 313 310 309 308 305
275 278 281 284 287 289 291 294 296 298 300 301 303 305 306 307 308 309 311 312 313 313 314 315 316 317 317 316 317 316 317 318 317 316 312 311 311 308
277 280 283 285 287 289 291 294 296 298 299 301 302 304 306 307 307 309 312 313 313 314 315 316 317 318 319 318 317 318 320 320 319 318 316 315 315 312
277 280 283 284 287 290 292 295 297 298 299 301 302 304 305 306 307 309 312 313 314 315 316 318 319 320 321 322 321 320 321 322 322 321 320 320 319 316
278 280 282 284 288 291 293 295 297 298 300 302 303 304 305 306 307 310 312 314 315 316 317 319 320 321 322 323 323 323 324 325 326 325 325 325 324 320
277 279 281 284 289 291 294 296 297 298 301 303 304 306 306 308 309 311 313 315 317 318 319 320 322 323 324 326 327 327 328 328 329 330 329 328 328 326
276 279 282 285 289 292 295 295 297 299 301 303 304 306 308 309 310 312 314 316 317 319 320 322 323 325 325 327 329 331 331 332 333 334 333 332 333 332
274 278 283 287 289 291 292 293 296 298 301 302 304 307 309 311 312 313 315 316 318 320 321 322 325 327 327 329 331 332 333 335 336 336 336 337 338 336
274 278 283 286 288 289 289 290 293 297 300 302 305 308 310 312 313 313 315 316 318 320 322 322 324 327 328 329 331 334 336 337 338 339 340 342 343 342
275 278 282 286 287 287 287 288 292 295 298 301 305 309 311 313 314 314 314 315 317 320 322 323 325 327 329 330 331 336 339 340 341 345 346 347 348 349
274 277 281 283 285 284 286 288 290 293 297 300 304 308 311 313 315 314 314 316 319 322 323 324 326 328 330 333 336 339 340 342 343 348 351 353 355 356
273 276 278 281 282 283 285 287 288 291 294 297 302 307 312 314 313 312 314 318 321 323 326 327 328 330 332 335 337 340 342 343 345 348 354 359 1 0
272 274 276 278 279 280 283 283 287 290 292 297 302 307 311 313 312 311 313 318 322 324 326 330 332 334 334 336 340 343 345 345 347 349 353 358 359 1
271 271 274 275 276 277 278 280 285 288 291 298 303 308 311 310 309 309 311 317 321 324 326 329 332 335 337 337 340 342 342 345 350 353 354 357 359 2
Height
5718 5718 5717 5716 5715 5713 5712 5710 5709 5708 5707 5703 5699 5694 5689 5685 5680 5675 5669 5664 5658 5652 5645 5639 5633 5626 5620 5613 5607 5600 5594 5589 5584 5579 5575 5571 5567 5565
5710 5710 5709 5708 5706 5705 5703 5701 5699 5697 5696 5693 5689 5684 5679 5674 5669 5664 5658 5652 5646 5640 5633 5627 5621 5614 5608 5601 5595 5589 5583 5577 5572 5568 5563 5559 5556 5553
5702 5701 5700 5699 5698 5697 5695 5693 5690 5688 5686 5684 5679 5674 5669 5664 5658 5652 5646 5640 5634 5628 5621 5615 5609 5603 5597 5590 5584 5578 5572 5566 5561 5557 5553 5549 5546 5543
5693 5692 5692 5691 5689 5688 5686 5684 5681 5678 5676 5673 5669 5664 5659 5653 5648 5642 5635 5629 5623 5616 5610 5604 5598 5592 5586 5580 5574 5568 5562 5556 5551 5547 5543 5540 5537 5534
5684 5684 5683 5682 5680 5679 5677 5675 5672 5669 5666 5663 5659 5654 5648 5642 5637 5631 5625 5618 5612 5606 5600 5594 5588 5582 5575 5569 5563 5558 5552 5547 5542 5538 5534 5531 5528 5525
5675 5674 5674 5673 5671 5670 5668 5666 5663 5660 5656 5652 5648 5643 5638 5632 5626 5621 5616 5609 5602 5596 5590 5583 5578 5571 5565 5559 5554 5549 5544 5538 5534 5530 5526 5523 5520 5518
5666 5665 5665 5664 5662 5661 5659 5656 5653 5650 5646 5642 5638 5633 5628 5622 5617 5611 5605 5599 5593 5587 5581 5575 5568 5562 5556 5550 5545 5540 5535 5531 5526 5522 5518 5515 5512 5510
5657 5657 5656 5655 5653 5651 5649 5646 5643 5640 5636 5633 5628 5623 5618 5612 5606 5600 5594 5590 5585 5579 5572 5566 5559 5553 5547 5542 5537 5533 5528 5524 5519 5515 5511 5508 5505 5503
5649 5648 5647 5646 5644 5642 5640 5637 5633 5629 5626 5622 5618 5613 5608 5602 5597 5591 5585 5579 5574 5568 5562 5557 5550 5544 5539 5534 5530 5526 5521 5517 5512 5508 5504 5501 5498 5495
5640 5640 5639 5637 5635 5633 5631 5628 5625 5621 5617 5613 5608 5603 5598 5592 5586 5581 5576 5571 5565 5559 5553 5549 5543 5537 5532 5527 5523 5519 5515 5510 5506 5501 5498 5494 5491 5488
5631 5631 5630 5628 5626 5624 5623 5620 5617 5613 5608 5603 5598 5593 5588 5583 5577 5573 5568 5563 5558 5552 5546 5541 5536 5531 5526 5521 5517 5512 5508 5504 5499 5495 5491 5488 5485 5482
5622 5622 5620 5619 5617 5615 5613 5611 5608 5604 5600 5595 5590 5585 5579 5574 5569 5565 5560 5555 5550 5545 5539 5534 5529 5525 5522 5517 5511 5507 5502 5498 5494 5490 5486 5482 5479 5477
5614 5613 5611 5610 5608 5606 5604 5601 5598 5595 5591 5586 5582 5577 5572 5567 5562 5557 5552 5547 5542 5537 5533 5528 5524 5519 5515 5511 5507 5502 5498 5493 5489 5485 5481 5478 5474 5471
5605 5604 5603 5601 5600 5598 5595 5592 5589 5585 5582 5578 5573 5569 5565 5560 5555 5550 5545 5540 5536 5531 5526 5522 5518 5514 5510 5506 5503 5499 5494 5489 5485 5481 5477 5474 5470 5467
5596 5595 5594 5593 5591 5589 5586 5583 5580 5577 5573 5570 5566 5562 5557 5553 5548 5544 5539 5535 5530 5525 5521 5517 5512 5508 5505 5501 5498 5495 5491 5486 5482 5478 5474 5470 5467 5464
5587 5587 5585 5584 5582 5580 5577 5575 5572 5569 5565 5562 5558 5555 5551 5547 5542 5538 5534 5530 5526 5521 5517 5512 5508 5504 5501 5498 5494 5491 5487 5483 5479 5475 5471 5467 5464 5461
5578 5578 5577 5576 5574 5572 5569 5567 5564 5562 5558 5555 5552 5549 5545 5541 5537 5533 5529 5525 5521 5517 5513 5509 5505 5502 5498 5495 5492 5488 5484 5481 5477 5472 5469 5465 5462 5460
5570 5569 5569 5568 5566 5564 5562 5560 5558 5555 5552 5549 5546 5543 5540 5536 5533 5529 5525 5521 5517 5514 5510 5506 5503 5500 5496 5492 5489 5486 5482 5478 5475 5471 5467 5464 5461 5458
5562 5561 5561 5560 5559 5557 5555 5553 5551 5549 5546 5544 5541 5538 5535 5531 5528 5524 5521 5517 5514 5510 5507 5503 5500 5497 5494 5491 5487 5483 5481 5477 5473 5470 5466 5463 5461 5458
5554 5553 5553 5552 5551 5550 5548 5547 5545 5543 5541 5539 5536 5534 5530 5527 5523 5520 5517 5513 5510 5507 5504 5500 5497 5494 5491 5489 5486 5482 5479 5476 5472 5469 5467 5463 5461 5459
5546 5546 5545 5545 5544 5543 5542 5541 5539 5538 5536 5534 5532 5529 5526 5522 5519 5516 5513 5510 5507 5504 5501 5498 5494 5492 5489 5487 5484 5481 5478 5474 5472 5469 5467 5465 5462 5460
5538 5538 5538 5538 5537 5537 5536 5535 5534 5533 5531 5529 5527 5524 5521 5518 5515 5513 5510 5507 5505 5502 5498 5495 5492 5490 5487 5485 5483 5480 5478 5474 5471 5468 5466 5464 5463 5460
5531 5531 5531 5531 5531 5530 5530 5529 5528 5527 5526 5524 5522 5519 5517 5514 5512 5510 5507 5505 5502 5499 5496 5494 5491 5488 5486 5484 5482 5479 5477 5474 5471 5469 5466 5464 5462 5460